Torna al catalogo

FENGYUN 1C DEB

AttivoPO
NORAD 31618·DEBRIS·🇨🇳 China

Lanciato May 10, 1999 da Taiyuan Satellite Launch Center

Loading…

Prossimi Passaggi (prossime 24 ore)

TLE

AggiornatoSource: Space-Track

Epoca: Sep 14, 2026, 04:21 UTC

1 31618U 99025BZY 26257.18168561  .00000418  00000-0  19040-3 0  9992
2 31618  99.4785  64.7414 0155820 268.5324  89.7997 14.21467171741779

Traccia FENGYUN 1C DEB in tempo reale con AllMySat

Download on the App Store